Regional Weather Roundup
Issued by NWS

Home | Current Version | Previous Version | Text Only | Print | Product List | Glossary On
Versions: 1 2 3 4 5 6 7 8 9 10 11 12 13 14 15 16 17 18 19 20 21 22 23 24 25 26 27 28 29 30 31 32 33 34 35 36 37 38 39 40 41 42 43 44 45 46 47 48 49 50
007
ASUS43 KTOP 241959
RWRKS

WEATHER ROUNDUP FOR KANSAS
NATIONAL WEATHER SERVICE GOODLAND KS
300 PM CDT SAT JUN 24 2017

NOTE:  "FAIR" INDICATES FEW OR NO CLOUDS BELOW 12,000 FEET WITH NO
SIGNIFICANT WEATHER AND/OR OBSTRUCTIONS TO VISIBILITY.

KSZ001>006-013>018-027>032-041>047-242100-
NORTHWEST KANSAS

CITY           SKY/WX    TMP DP  RH WIND       PRES   REMARKS
GOODLAND       CLOUDY    70  51  51 S10       30.29F
HAYS           PTSUNNY   79  52  38 VRB6      30.23F
HILL CITY      CLOUDY    77  50  38 SE5       30.26F
RUSSELL        CLOUDY    78  47  33 CALM      30.23F
$$

KSZ061>065-074>080-084>089-242100-
SOUTHWEST KANSAS

CITY           SKY/WX    TMP DP  RH WIND       PRES   REMARKS
DODGE CITY     SUNNY     78  53  41 SE8G20    30.25F
ELKHART          N/A     73  45  36 SE14        N/A
GARDEN CITY    PTSUNNY   79  50  36 S12G21    30.25F
GREAT BEND     MOSUNNY   80  51  36 VRB3      30.23F
LIBERAL        CLOUDY    78  49  35 S17G24    30.26F
$$

KSZ066>073-081>083-090>101-242100-
SOUTHEAST KANSAS

CITY           SKY/WX    TMP DP  RH WIND       PRES   REMARKS
CHANUTE        SUNNY     82  45  27 N8        30.21F
COFFEYVILLE    SUNNY     83  53  35 N10       30.19F
HUTCHINSON     SUNNY     82  47  29 NE5       30.22F
MEDICINE LODGE   N/A     80  51  36 VRB3      30.20F
NEWTON         SUNNY     80  47  31 CALM      30.23F
PARSONS        SUNNY     82  47  29 VRB5      30.21F
WICHITA INTL   MOSUNNY   80  52  37 VRB5      30.22F
WICHITA JABRA  SUNNY     80  51  36 VRB5      30.22F
WINFIELD       SUNNY     81  52  36 NE8       30.22F
$$

KSZ007>012-019>026-033>040-048>060-102>105-242100-
NORTHEAST KANSAS

CITY           SKY/WX    TMP DP  RH WIND       PRES   REMARKS
CONCORDIA      CLOUDY    78  37  22 SW6G16    30.24F
EMPORIA        SUNNY     78  45  30 N3        30.22F
LAWRENCE       SUNNY     79  46  31 NW8       30.22F
MANHATTAN      SUNNY     82  40  22 VRB3      30.22F
OLATHE IND     SUNNY     77  46  33 NW9       30.22F
OLATHE EXE     SUNNY     77  41  27 N7        30.21F
SALINA         SUNNY     84  44  24 W10       30.23F
TOPEKA BILLARD SUNNY     78  47  33 VRB3      30.22F
TOPEKA FORBES  SUNNY     78  45  30 NW7       30.23F
$$




USA.gov is the U.S. government's official web portal to all federal, state and local government web resources and services.